Terminal Aerodrome Forecast
Issued by NWS

Home | Current Version | Previous Version | Graphics & Text | Print | Product List | Glossary On
Versions: 1 2 3 4 5 6 7 8 9 10 11 12 13 14 15 16 17 18 19 20 21 22 23 24 25 26 27 28 29
000
FTUS43 KGRB 240520
TAFCWA
TAF
KCWA 240520Z 2406/2506 02007KT P6SM SCT025
     FM241000 03005KT 3SM BR SCT026
     FM241200 03005KT P6SM SCT017
     FM241600 06005KT P6SM SCT040
     FM242100 12004KT P6SM FEW060
     FM250200 13003KT P6SM SKC=

USA.gov is the U.S. government's official web portal to all federal, state and local government web resources and services.